Tracking 19242 objects as of 16-Aug-2018
HD Live streaming from Space Station
objects crossing your sky now

FENGYUN 1C DEB

Track FENGYUN 1C DEB now!
10-day predictions


NORAD ID: 30553
Int'l Code: 1999-025AKT
Perigee: 758.1 km
Apogee: 816.0 km
Inclination: 99.2 °
Period: 100.4 minutes
Semi major axis: 7158 km
RCS: 0.027 m2 (small)
Launch date: May 10, 1999
Source: People's Republic of China (PRC)
Launch site: Taiyaun Space Center, China (TSC)

Note: This is SATELLITE DEBRIS
aabbcc
Your satellite tracking list
Your tracking list is empty




NASA's NSSDC Master Catalog

Two Line Element Set (TLE):
1 30553U 99025AKT 18227.58074664  .00000763  00000-0  29054-3 0  9990
2 30553  99.1513  95.1583 0040458 113.8803 246.6627 14.33553751599599
Source of the keplerian elements: AFSPC